Flag for India Weather past 2 weeks in Tarn Taran Sahib, Punjab, India

Now
90 °F

Partly sunny.


Feels Like: 103 °F
Forecast: 83 / 93 °F
Wind: 2 mph from North

Location: Amritsar Airport

Current Time: Jul 29, 2015 at 7:44:47 PM

Latest Report: Jul 29, 2015 at 7:00 PM


Visibility: 2 mi

Pressure: 29.45 "Hg

Humidity: 67%

Dew point: 77 °F

Location of Tarn Taran SahibLocation

Historic Weather in Tarn Taran Sahib — Graph

°F

Tarn Taran Sahib temperature yesterday

Maximum temperature yesterday: 91 °F (at 5:00 PM)
Minimum temperature yesterday: 81 °F (at 4:30 AM)
Average temperature yesterday: 84 °F

Past Weeks' High & Low Weather Summary

 TemperatureHumidityPressure
High99 °F (Jul 15, 2:30 PM)100% (Jul 15, 1:00 AM)29.68 "Hg (Jul 15, 1:00 AM)
Low75 °F (Jul 17, 1:30 AM)57% (Jul 15, 2:30 PM)29.30 "Hg (Jul 16, 2:00 AM)
Average86 °F85%29.53 "Hg
* Reported Jul 14 5:30 PM — Jul 29 6:00 PM, Tarn Taran Sahib, Weather by CustomWeather, © 2015

Note: Actual official high and low records may vary slightly from our data, if they occured in-between our weather recording intervals... More about our weather records

Advertising

Tarn Taran Sahib weather history for previous 24 hours

 ConditionsComfort  
Time TempWeatherWind HumidityBarometerVisibility
6:00 PM
Wed, Jul 29
91 °FScattered clouds.5 mph63%29.45 "Hg2 mi
5:30 PM93 °FScattered clouds.5 mph59%29.45 "Hg2 mi
5:00 PM93 °FScattered clouds.3 mph63%29.45 "Hg2 mi
4:00 PM93 °FScattered clouds.6 mph63%29.47 "Hg2 mi
10:00 AM90 °FScattered clouds.7 mph71%29.53 "Hg3 mi
9:30 AM88 °FFog.6 mph79%29.53 "Hg3 mi
9:00 AM86 °FFog.6 mph84%29.53 "Hg3 mi
8:00 AM84 °FFog.6 mph89%29.53 "Hg2 mi
7:30 AM82 °FFog.7 mph94%29.53 "Hg2 mi
7:00 AM82 °FFog.6 mph94%29.53 "Hg2 mi
6:30 AM81 °FFog.No wind100%29.50 "Hg1 mi
6:00 AM81 °FFog.3 mph100%29.50 "Hg1 mi
5:30 AM81 °FFog.2 mph100%29.53 "Hg1 mi
5:00 AM82 °FFog.1 mph94%29.53 "Hg1 mi
4:30 AM82 °FFog.2 mph100%29.53 "Hg1 mi
4:00 AM82 °FFog.5 mph94%29.53 "Hg1 mi
3:30 AM82 °FFog.5 mph94%29.53 "Hg1 mi
3:00 AM82 °FFog.1 mph94%29.53 "Hg1 mi
2:30 AM82 °FFog.No wind100%29.56 "Hg1 mi
2:00 AM82 °FFog.No wind100%29.56 "Hg1 mi
1:30 AM82 °FFog.No wind100%29.56 "Hg1 mi
1:00 AM82 °FFog.No wind100%29.56 "Hg1 mi
12:30 AM82 °FFog.No wind94%29.56 "Hg1 mi
12:00 AM84 °FFog.No wind89%29.56 "Hg1 mi
11:30 PM
Tue, Jul 28
84 °FFog.No wind89%29.59 "Hg1 mi
11:00 PM84 °FFog.No wind89%29.56 "Hg2 mi
10:30 PM84 °FFog.No wind89%29.56 "Hg2 mi
9:30 PM86 °FFog.No wind79%29.56 "Hg2 mi
9:00 PM86 °FFog.No wind79%29.56 "Hg2 mi
8:30 PM86 °FFog.No wind79%29.56 "Hg2 mi
8:00 PM86 °FFog.No wind79%29.53 "Hg2 mi
7:30 PM86 °FFog.No wind79%29.53 "Hg2 mi
Weather by CustomWeather, © 2015

See weather overviewHow to use our weather pages